2017-008K

Last updated on Tue Feb 28 2017 00:15:03 GMT+0000 (Greenwich Mean Time)

1 41957U 17008K 17058.63617620 .00001561 00000-0 72861-4 0 9995 2 41957 97.5095 120.2350 0008343 209.2886 150.7878 15.21318037 1715
UTC large
Height (km)
Speed (km/s)
/
Latitude / Longitude
Inclination (degrees)
Orbital Period (minutes)
Azimuth
Elevation
Range (km)
Doppler Factor

Next 0 passes for location: London (51.5072 / 0.1276)

Sorry there are no passes over London.